COSMOS 2004

Satellite information

Favourite Embed

Satellite Type and Status

PAYLOADIN ORBIT

Key statistics

Satellite COSMOS 2004 at a glance.

Uptime

13226

Days in orbit

Revolutions

≈ 13.7

Per day

Orbit

LEO

Low Earth Orbit

Inclination

83.0

Latest

Satellite identification and parameters

Extended collection of information and parameters for COSMOS 2004.

Object identification

Identified? True

Debris? False

Object name: COSMOS 2004

International designator: 1989-017A

Object number (NORAD): 19826

Object ID (CCSDS): 19826

Country: COMMONWEALTH OF INDEPENDENT STATES (CIS)

Current information (Y/N): Y

RCS size: LARGE

Orbital parameters

Period: 104.918 minutes

Inclination: 82.9544 deg

SMA: 7368.724 km

Apoapsis: 1011.764 km

Periapsis: 969.413 km

RAAN: 220.5302 deg

Eccentricy: 0.0028737

Argument of periapsis: 291.9307 deg

Mean anomaly: 182.6054 deg

Mean motion: 13.72506297 rev/day

Mean motion (dot): 0.00000062 rev/day2

B* drag term: 0.000051983 1/REarth

Two-line elements (TLE)

Creation date: May 10, 2025, 2:32 a.m.

Reference frame: TEME

Reference center: EARTH

Epoch: May 9, 2025, 5:48 p.m. UTC

TLE line 0: 0 COSMOS 2004

TLE line 1: 1 19826U 89017A 25129.74192147 .00000062 00000-0 51983-4 0 9993

TLE line 2: 2 19826 82.9544 220.5302 0028737 291.9307 182.6054 13.72506297813147

Live tracking on map

Real-time ground track for satellite COSMOS 2004.

In-orbit conjunctions

There are no conjunctions computed for COSMOS 2004, at the moment. Check back to stay up to date, as we update our databases every day.

Go to all conjunctions

Associated space launch

Navigation satellite providing location information for the Tsiklon-B navigation system

COSMOS 2004 was lifted into orbit during the mission ‘Kosmos-3M | Parus 64’, on board a Kosmos-3M space rocket.

The launch took place on Feb. 22, 1989, 3:28 a.m. from 132/2.

For more information about the launch, click the button.

Launch to space Kosmos-3M | Parus 64
Kosmos-3M | Parus 64

Agency: N/A

Status: Launch Successful

Launch date: Feb. 22, 1989, 3:28 a.m. UTC

Rocket: Kosmos-3M

Launch pad: 132/2

Location: Plesetsk Cosmodrome, Russian Federation

...

Latest news about this satellite

There are no fresh news available about this satellite. Check back as we update our databases every day.


Newsletter sign-up

Weekly statistics, charts and insights to help you stay on top of the space industry.